CST,Max TemperatureF,Mean TemperatureF,Min TemperatureF,Max Dew PointF,MeanDew PointF,Min DewpointF,Max Humidity, Mean Humidity, Min Humidity, Max Sea Level PressureIn, Mean Sea Level PressureIn, Min Sea Level PressureIn, Max VisibilityMiles, Mean VisibilityMiles, Min VisibilityMiles, Max Wind SpeedMPH, Mean Wind SpeedMPH, Max Gust SpeedMPH,PrecipitationIn, CloudCover, Events, WindDirDegrees
2013-1-1,70,61,51,64,57,48,100,89,78,30.10,30.00,29.93,10,7,1,18,7,26,0.56,8,Rain,324
2013-1-2,51,46,41,46,42,38,93,85,76,30.25,30.17,30.08,10,8,4,14,7,20,0.08,8,Rain,347
2013-1-3,50,41,31,38,31,22,92,63,34,30.40,30.31,30.24,10,8,6,13,6,17,T,3,,347
2013-1-4,58,44,29,38,29,24,92,60,28,30.48,30.41,30.36,10,10,10,12,3,15,0.00,1,,347
2013-1-5,53,44,35,42,35,31,92,68,44,30.41,30.34,30.26,10,10,7,12,2,13,0.05,4,Rain,4
2013-1-6,53,46,38,43,41,36,93,78,63,30.33,30.28,30.24,10,8,2,12,4,16,0.18,6,Rain,12
2013-1-7,60,46,31,40,34,28,96,66,36,30.36,30.30,30.21,10,4,0,9,1,14,0.00,2,Fog,41
2013-1-8,59,49,38,55,49,36,93,84,74,30.27,30.19,30.15,10,9,5,7,1,10,0.02,7,Rain,91
2013-1-9,68,63,57,65,61,54,93,90,87,30.24,30.21,30.16,10,5,2,10,4,14,0.29,8,Rain,94
2013-1-10,73,67,61,66,64,59,97,88,79,30.22,30.14,30.02,10,7,1,20,8,26,1.02,7,Rain-Thunderstorm,133
2013-1-11,76,70,64,68,65,61,93,84,74,30.12,30.07,30.03,10,8,1,17,7,24,0.91,8,Rain,174
2013-1-12,79,75,70,70,67,66,90,85,79,30.07,30.00,29.94,10,10,6,18,9,23,0.04,7,Rain,167
2013-1-13,75,62,49,70,62,46,93,86,79,30.10,29.97,29.88,10,8,1,22,10,30,1.41,7,Rain-Thunderstorm,220
2013-1-14,49,44,39,46,41,36,93,90,86,30.21,30.14,30.09,10,5,2,16,8,21,0.97,8,Rain-Thunderstorm,19
2013-1-15,48,44,40,46,42,37,96,91,86,30.12,30.04,30.00,10,4,1,10,5,14,0.16,8,Rain,357
2013-1-16,44,41,37,41,37,35,96,89,82,30.12,30.08,30.01,10,6,2,13,7,17,0.38,8,Rain,329
2013-1-17,51,43,34,36,33,30,92,71,50,30.43,30.22,30.11,10,7,2,22,12,29,0.01,6,Rain-Snow,306
2013-1-18,58,45,32,37,32,29,89,61,33,30.57,30.47,30.42,10,9,5,10,4,13,0.00,0,,8
2013-1-19,64,47,30,45,36,28,96,70,43,30.42,30.34,30.26,10,10,9,12,1,16,0.00,0,,169
2013-1-20,67,51,35,45,36,26,92,58,24,30.29,30.23,30.15,10,9,2,8,1,20,0.00,0,,330
2013-1-21,67,51,34,44,38,32,96,67,37,30.25,30.20,30.15,10,10,9,12,2,16,0.00,0,,360
2013-1-22,59,48,36,39,31,23,92,62,32,30.40,30.33,30.26,10,10,10,9,2,12,0.00,2,,30
2013-1-23,70,52,34,48,41,32,92,65,37,30.40,30.33,30.28,10,10,9,12,4,16,0.00,3,,216
2013-1-24,74,58,41,56,48,39,93,70,46,30.34,30.28,30.22,10,9,2,14,4,20,0.00,3,,236
2013-1-25,75,61,46,56,50,44,93,70,46,30.26,30.22,30.13,10,6,0,20,6,25,0.00,1,Fog,187
2013-1-26,71,61,50,59,54,48,96,81,66,30.27,30.23,30.19,10,7,2,9,1,12,T,5,Rain,84
2013-1-27,73,59,45,58,49,43,100,73,46,30.32,30.27,30.22,10,5,0,15,4,22,0.00,4,Fog,156
2013-1-28,78,68,57,63,58,55,97,73,48,30.29,30.22,30.14,10,6,0,14,7,17,0.00,6,Fog,146
2013-1-29,80,73,66,68,65,63,93,77,60,30.14,30.02,29.80,10,8,2,26,10,35,T,7,Rain,160
2013-1-30,74,59,43,68,52,29,93,70,46,30.17,29.80,29.66,10,7,1,26,13,37,1.85,6,Rain-Thunderstorm,251
2013-1-31,60,47,33,37,29,23,89,56,23,30.33,30.25,30.19,10,10,10,15,4,20,0.00,0,,251